Regional Weather Roundup
Issued by NWS Little Rock, AR

Home | Current Version | Previous Version | Graphics & Text | Print | Product List | Glossary On
Versions: 1 2 3 4 5 6 7 8 9 10 11 12 13 14 15 16 17 18 19 20 21 22 23 24 25 26 27 28 29 30 31 32 33 34 35 36 37 38 39 40 41 42 43 44 45 46
000
ASUS44 KLZK 011105
RWRLZK

WEATHER ROUNDUP FOR ARKANSAS
NATIONAL WEATHER SERVICE LITTLE ROCK AR
600 AM CDT SAT AUG 01 2015

NOTE: "FAIR" INDICATES FEW OR NO CLOUDS BELOW 12,000 FEET WITH NO
SIGNIFICANT WEATHER AND/OR OBSTRUCTIONS TO VISIBILITY.

ARZ001-003-010-029-011200-
NORTHWEST ARKANSAS

CITY           SKY/WX    TMP DP  RH WIND       PRES   REMARKS
FAYETTEVILLE   CLEAR     61  61 100 CALM      30.11R
FORT SMITH     CLEAR     71  64  78 E3        30.06R
HARRISON       CLEAR     65  60  84 CALM      30.11R
BENTONVILLE    CLEAR     64  61  88 CALM      30.11S
ROGERS         CLEAR     66  64  93 SE3       30.11S
SILOAM SPGS    CLEAR     64  57  77 E5        30.09R
HIGHFILL       CLEAR     64  62  93 CALM      30.10R
SPRINGDALE     CLEAR     66  63  88 CALM      30.12
$$

ARZ004-005-016-011200-
NORTH CENTRAL ARKANSAS

CITY           SKY/WX    TMP DP  RH WIND       PRES   REMARKS
BATESVILLE     CLEAR     66  64  94 W3        30.05R
FLIPPIN        CLEAR     64  61  88 CALM      30.06R
MTN HOME       FOG       69  69 100 CALM      30.07S VSB 1/4
$$

ARZ040-041-011200-
WEST CENTRAL ARKANSAS

CITY           SKY/WX    TMP DP  RH WIND       PRES   REMARKS
MENA           CLEAR     64  63  94 CALM      30.09S
MOUNT IDA      CLEAR     65  63  93 CALM      30.05R
$$

ARZ009-017-025-026-028-011200-
NORTHEAST ARKANSAS

CITY           SKY/WX    TMP DP  RH WIND       PRES   REMARKS
JONESBORO      CLEAR     69  66  90 CALM      30.02R
NEWPORT        CLEAR     71  69  93 NW6       30.04R
WALNUT RIDGE   CLEAR     72  66  83 NW3       30.03S
BLYTHEVILLE    CLEAR     69  68  96 CALM      30.02R
$$

ARZ022-023-033-042-044-011200-
CENTRAL ARKANSAS

CITY           SKY/WX    TMP DP  RH WIND       PRES   REMARKS
LITTLE ROCK    PTCLDY    72  65  78 CALM      30.04R
N LITTLE ROCK    N/A     73  67  82 NW6       30.04R
JACKSONVILLE   PTCLDY    67  64  90 NW1       30.04R
SEARCY         PTCLDY    68  66  94 CALM      30.05R FOG
HOT SPRINGS    CLEAR     67  64  90 CALM      30.05R
RUSSELLVILLE   CLEAR     67  65  93 CALM      30.05R
$$

ARZ036-011200-
EAST ARKANSAS

CITY           SKY/WX    TMP DP  RH WIND       PRES   REMARKS
WEST MEMPHIS   PTCLDY    70  69  97 CALM      30.02R
$$

ARZ050-053-066-070-073-011200-
SOUTHWEST ARKANSAS

CITY           SKY/WX    TMP DP  RH WIND       PRES   REMARKS
ARKADELPHIA    FOG       66  66 100 CALM      30.04R VSB 1/2
CAMDEN         CLEAR     64  61  88 CALM      30.03R
TEXARKANA      CLEAR     67  65  93 CALM      30.04R
EL DORADO      CLEAR     67  64  90 N5        30.03R
DE QUEEN       CLEAR     66  66 100 CALM      30.03R
$$

ARZ056-057-069-011200-
SOUTHEAST ARKANSAS

CITY           SKY/WX    TMP DP  RH WIND       PRES   REMARKS
PINE BLUFF     CLEAR     70  66  87 N5        30.03R
STUTTGART      CLEAR     70  64  83 MISG      30.02R
MONTICELLO     CLEAR     70  68  93 CALM      30.02R

$$




USA.gov is the U.S. government's official web portal to all federal, state and local government web resources and services.